Regional Weather Roundup
Issued by NWS

Home | Current Version | Previous Version | Text Only | Print | Product List | Glossary On
Versions: 1 2 3 4 5 6 7 8 9 10 11 12 13 14 15 16 17 18 19 20 21 22 23 24 25 26 27 28 29 30 31 32 33 34 35 36 37 38 39 40 41 42 43 44 45 46 47 48 49 50
000
ASCA42 TJSJ 011110
RWRPR
PUERTO RICO/U.S. VIRGIN ISLANDS HOURLY WEATHER ROUNDUP
NATIONAL WEATHER SERVICE SAN JUAN PR
700 AM AST SUN MAR 01 2015

PRZ001-004-011200-
PUERTO RICO

CITY           SKY/WX    TMP DP  RH WIND       PRES   REMARKS
SAN JUAN LMM   PTCLDY    77  70  78 E17G24    30.11R
AGUADILLA      PTCLDY    70  66  88 E7        30.13R
CEIBA          CLOUDY    75  68  78 NE10      30.13R
$$

PRZ006-007-011200-
U.S. VIRGIN ISLANDS

CITY           SKY/WX    TMP DP  RH WIND       PRES   REMARKS
$$

HOURLY WEATHER ROUNDUP FOR THE NEWS MEDIA

CITY           SKY/WX    TMP DP  RH WIND       PRES   REMARKS
ORLANDO        CLOUDY    65  64  97 NE5       30.33R
NEW YORK       CLOUDY    26   7  44 W9        30.71R WCI  17
NEWARK         CLOUDY    21   6  52 SW3       30.70S
CHICAGO        CLOUDY    14  10  84 CALM      30.38S FOG
HARTFORD       PTCLDY     0  -4  83 CALM      30.67F
BOSTON         PTCLDY    15   4  61 CALM      30.67F
DALLAS         LGT RAIN  34  32  93 N5        30.30R FOG     WCI  30
PHILADELPHIA   CLOUDY    24  10  55 CALM      30.68F
LOS ANGELES    MOCLDY    53  48  83 NE5       29.92S
WASHINGTON DC  CLOUDY    24  12  60 CALM      30.65R


USA.gov is the U.S. government's official web portal to all federal, state and local government web resources and services.